Location: Columbia
(38.9520°N, 92.3340°W)
Time: 21:03:48
(UTC-05:00)

CZ-2C R/B - Visible Passes

Search period start: 27 May 2016 00:00
Search period end: 06 June 2016 00:00
Orbit: 705 x 908 km, 98.2° (Epoch: 27 May)

Date Brightness Start Highest point End Pass type
(mag) Time Alt. Az. Time Alt. Az. Time Alt. Az.
27 May 5.6 00:14:18 10° E 00:16:16 12° ENE 00:18:26 10° NE visible
27 May 3.1 01:55:22 84° N 01:55:22 84° N 02:00:51 10° NNW visible
27 May 5.4 03:36:26 10° W 03:36:26 10° W 03:36:51 10° WNW visible
28 May 3.6 01:30:16 54° E 01:30:31 54° ENE 01:36:02 10° N visible
28 May 4.8 03:11:20 19° W 03:11:20 19° W 03:14:37 10° NW visible
29 May 4.4 01:05:11 32° E 01:05:58 33° ENE 01:11:00 10° N visible
29 May 4.2 02:46:15 31° W 02:46:15 31° W 02:50:46 10° NNW visible
30 May 5.0 00:40:06 19° E 00:41:31 21° ENE 00:45:40 10° NNE visible
30 May 3.5 02:21:10 53° W 02:21:10 53° W 02:26:27 10° NNW visible
31 May 5.5 00:15:02 11° E 00:17:10 13° ENE 00:19:42 10° NNE visible
31 May 3.1 01:56:05 88° WSW 01:56:06 89° WSW 02:01:53 10° NNW visible
31 May 5.4 03:37:09 10° W 03:37:09 10° W 03:37:40 10° WNW visible
01 Jun 3.6 01:31:01 55° E 01:31:27 57° ENE 01:37:05 10° N visible
01 Jun 4.9 03:12:05 19° W 03:12:05 19° W 03:15:35 10° NW visible
02 Jun 4.3 01:05:56 33° E 01:06:54 35° ENE 01:12:03 10° N visible
02 Jun 4.2 02:47:00 31° W 02:47:00 31° W 02:51:45 10° NNW visible
03 Jun 5.0 00:40:52 20° E 00:42:27 22° ENE 00:46:45 10° NNE visible
03 Jun 3.5 02:21:56 52° W 02:21:56 52° W 02:27:28 10° NNW visible
04 Jun 5.5 00:15:48 11° E 00:18:05 14° ENE 00:20:54 10° NNE visible
04 Jun 3.1 01:56:52 83° SSW 01:57:04 86° WSW 02:02:54 10° NNW visible
04 Jun 5.4 03:37:57 10° W 03:37:57 10° W 03:38:19 10° W visible
05 Jun 3.5 01:31:48 56° E 01:32:24 59° ENE 01:38:06 10° N visible
05 Jun 4.9 03:12:53 18° W 03:12:53 18° W 03:16:32 10° NW visible
